| time (UTC) | temp C | wind direction | speed KPH | gust KPH | rain 1hr cm | rain 24hr cm | rain mn cm | humidity % | barometer mb |
| 20260506051056 | 23 | 224 | 17.7 | 35.4 | 0.00 | 0.00 | 0.00 | 81 | 1007.5 |
| 20260506050557 | 23 | 207 | 20.9 | 30.6 | 0.00 | 0.00 | 0.00 | 81 | 1007.6 |
| 20260506045057 | 23 | 189 | 16.1 | 27.4 | 0.00 | 0.00 | 0.00 | 81 | 1007.2 |
| 20260506044557 | 23 | 199 | 17.7 | 27.4 | 0.00 | 0.00 | 0.00 | 81 | 1007.2 |
| 20260506044056 | 23 | 183 | 14.5 | 27.4 | 0.00 | 0.00 | 0.00 | 81 | 1007.0 |
| 20260506043556 | 23 | 179 | 16.1 | 29.0 | 0.00 | 0.00 | 0.00 | 81 | 1007.4 |
| 20260506043100 | 23 | 181 | 17.7 | 32.2 | 0.00 | 0.00 | 0.00 | 81 | 1007.2 |
| 20260506042556 | 23 | 162 | 19.3 | 32.2 | 0.00 | 0.00 | 0.00 | 81 | 1007.3 |
| 20260506042056 | 23 | 152 | 19.3 | 32.2 | 0.00 | 0.00 | 0.00 | 81 | 1007.4 |
| 20260506041558 | 23 | 189 | 16.1 | 29.0 | 0.00 | 0.00 | 0.00 | 81 | 1007.6 |
| 20260506041055 | 23 | 177 | 17.7 | 30.6 | 0.00 | 0.00 | 0.00 | 80 | 1007.5 |
| 20260506040556 | 23 | 187 | 22.5 | 30.6 | 0.00 | 0.00 | 0.00 | 80 | 1007.6 |
| 20260506040100 | 23 | 179 | 17.7 | 29.0 | 0.00 | 0.00 | 0.00 | 80 | 1007.7 |
| 20260506035556 | 23 | 175 | 19.3 | 29.0 | 0.00 | 0.00 | 0.00 | 80 | 1007.8 |
| 20260506035056 | 23 | 180 | 16.1 | 30.6 | 0.00 | 0.00 | 0.00 | 80 | 1007.7 |
| 20260506034612 | 23 | 165 | 16.1 | 30.6 | 0.00 | 0.00 | 0.00 | 80 | 1007.8 |
| 20260506034056 | 23 | 196 | 20.9 | 30.6 | 0.00 | 0.00 | 0.00 | 80 | 1008.0 |
| 20260506033556 | 23 | 170 | 17.7 | 29.0 | 0.00 | 0.00 | 0.00 | 80 | 1007.7 |
| 20260506033059 | 23 | 212 | 14.5 | 29.0 | 0.00 | 0.00 | 0.00 | 80 | 1007.7 |
| 20260506032556 | 23 | 169 | 17.7 | 29.0 | 0.00 | 0.00 | 0.00 | 80 | 1007.6 |
| 20260506032056 | 23 | 174 | 19.3 | 29.0 | 0.00 | 0.00 | 0.00 | 80 | 1007.7 |
| 20260506031605 | 23 | 194 | 16.1 | 24.1 | 0.00 | 0.00 | 0.00 | 79 | 1007.6 |
| 20260506031058 | 23 | 184 | 6.4 | 20.9 | 0.00 | 0.00 | 0.00 | 79 | 1007.7 |
| 20260506030556 | 23 | 0 | 9.7 | 20.9 | 0.00 | 0.00 | 0.00 | 79 | 1007.6 |
| 20260506030054 | 23 | 187 | 12.9 | 25.7 | 0.00 | 0.00 | 0.00 | 79 | 1008.0 |
| 20260506025557 | 23 | 179 | 11.3 | 25.7 | 0.00 | 0.00 | 0.00 | 79 | 1007.9 |
| 20260506025056 | 23 | 183 | 17.7 | 29.0 | 0.00 | 0.00 | 0.00 | 79 | 1007.7 |
| 20260506024556 | 23 | 171 | 14.5 | 29.0 | 0.00 | 0.00 | 0.00 | 79 | 1007.6 |
| 20260506024056 | 23 | 169 | 14.5 | 22.5 | 0.00 | 0.00 | 0.00 | 79 | 1007.6 |
| 20260506023556 | 23 | 176 | 9.7 | 22.5 | 0.00 | 0.00 | 0.00 | 78 | 1007.3 |
| 20260506023105 | 23 | 226 | 11.3 | 24.1 | 0.00 | 0.00 | 0.00 | 78 | 1007.4 |
| 20260506022556 | 23 | 175 | 16.1 | 24.1 | 0.00 | 0.00 | 0.00 | 78 | 1007.4 |
| 20260506022056 | 23 | 196 | 11.3 | 29.0 | 0.00 | 0.00 | 0.00 | 78 | 1007.2 |
| 20260506021553 | 23 | 219 | 11.3 | 37.0 | 0.00 | 0.00 | 0.00 | 78 | 1007.2 |
| 20260506021100 | 23 | 193 | 14.5 | 37.0 | 0.00 | 0.00 | 0.00 | 78 | 1007.1 |
| 20260506020555 | 23 | 167 | 16.1 | 30.6 | 0.00 | 0.00 | 0.00 | 78 | 1007.1 |
| 20260506020057 | 23 | 168 | 17.7 | 30.6 | 0.00 | 0.00 | 0.00 | 78 | 1006.8 |
| 20260506015556 | 23 | 181 | 22.5 | 30.6 | 0.00 | 0.00 | 0.00 | 77 | 1006.9 |
| 20260506015059 | 23 | 165 | 16.1 | 30.6 | 0.00 | 0.00 | 0.00 | 77 | 1007.0 |
| 20260506014554 | 23 | 159 | 19.3 | 30.6 | 0.00 | 0.00 | 0.00 | 77 | 1007.1 |
| 20260506014056 | 23 | 195 | 17.7 | 30.6 | 0.00 | 0.00 | 0.00 | 77 | 1007.0 |
| 20260506013556 | 23 | 196 | 12.9 | 30.6 | 0.00 | 0.00 | 0.00 | 77 | 1006.8 |
| 20260506013109 | 23 | 166 | 20.9 | 30.6 | 0.00 | 0.00 | 0.00 | 77 | 1007.0 |
| 20260506012556 | 23 | 176 | 17.7 | 35.4 | 0.00 | 0.00 | 0.00 | 77 | 1006.8 |
| 20260506012059 | 23 | 188 | 24.1 | 35.4 | 0.00 | 0.00 | 0.00 | 77 | 1006.7 |
| 20260506011600 | 23 | 191 | 19.3 | 35.4 | 0.00 | 0.00 | 0.00 | 77 | 1006.5 |
| 20260506011056 | 23 | 169 | 19.3 | 41.8 | 0.00 | 0.00 | 0.00 | 77 | 1006.2 |
| 20260506010556 | 23 | 177 | 24.1 | 41.8 | 0.00 | 0.00 | 0.00 | 77 | 1006.1 |
| 20260506010117 | 23 | 198 | 27.4 | 40.2 | 0.00 | 0.00 | 0.00 | 77 | 1006.0 |
| 20260506005555 | 23 | 151 | 22.5 | 37.0 | 0.00 | 0.00 | 0.00 | 77 | 1006.0 |
| 20260506005057 | 23 | 184 | 17.7 | 30.6 | 0.00 | 0.00 | 0.00 | 77 | 1006.0 |
| 20260506004555 | 23 | 177 | 20.9 | 30.6 | 0.00 | 0.00 | 0.00 | 76 | 1006.1 |
| 20260506004055 | 23 | 191 | 19.3 | 30.6 | 0.00 | 0.00 | 0.00 | 76 | 1006.1 |
| 20260506003556 | 23 | 171 | 20.9 | 32.2 | 0.00 | 0.00 | 0.00 | 76 | 1006.2 |
| 20260506003114 | 23 | 167 | 19.3 | 32.2 | 0.00 | 0.00 | 0.00 | 76 | 1006.4 |
| 20260506002556 | 23 | 193 | 9.7 | 30.6 | 0.00 | 0.00 | 0.00 | 76 | 1006.4 |
| 20260506002056 | 23 | 162 | 16.1 | 30.6 | 0.00 | 0.00 | 0.00 | 76 | 1006.3 |
| 20260506001601 | 23 | 174 | 14.5 | 29.0 | 0.00 | 0.00 | 0.00 | 76 | 1006.1 |
| 20260506001056 | 23 | 204 | 17.7 | 30.6 | 0.00 | 0.00 | 0.00 | 77 | 1006.3 |
| 20260506000557 | 23 | 151 | 17.7 | 30.6 | 0.00 | 0.00 | 0.00 | 77 | 1006.2 |
| 20260506000056 | 23 | 171 | 20.9 | 30.6 | 0.00 | 0.00 | 0.00 | 77 | 1006.2 |
| 20260505235556 | 23 | 176 | 22.5 | 30.6 | 0.00 | 0.00 | 0.00 | 77 | 1006.1 |
| 20260505235057 | 23 | 159 | 17.7 | 29.0 | 0.00 | 0.00 | 0.00 | 77 | 1006.2 |
| 20260505234559 | 23 | 150 | 19.3 | 29.0 | 0.00 | 0.00 | 0.00 | 77 | 1006.1 |
| 20260505234100 | 23 | 156 | 19.3 | 29.0 | 0.00 | 0.00 | 0.00 | 76 | 1006.3 |
| 20260505233557 | 23 | 194 | 17.7 | 29.0 | 0.00 | 0.00 | 0.00 | 76 | 1006.4 |
| 20260505233106 | 23 | 166 | 17.7 | 32.2 | 0.00 | 0.00 | 0.00 | 76 | 1006.4 |
| 20260505232555 | 23 | 170 | 19.3 | 32.2 | 0.00 | 0.00 | 0.00 | 76 | 1006.5 |
| 20260505232055 | 23 | 176 | 17.7 | 32.2 | 0.00 | 0.00 | 0.00 | 76 | 1006.3 |
| 20260505231556 | 23 | 166 | 22.5 | 37.0 | 0.00 | 0.00 | 0.00 | 76 | 1006.2 |
| 20260505231055 | 23 | 148 | 22.5 | 37.0 | 0.00 | 0.00 | 0.00 | 76 | 1006.2 |
| 20260505230556 | 23 | 218 | 22.5 | 32.2 | 0.00 | 0.00 | 0.00 | 76 | 1006.6 |
| 20260505230057 | 23 | 165 | 22.5 | 30.6 | 0.00 | 0.00 | 0.00 | 76 | 1006.9 |
| 20260505225556 | 23 | 165 | 22.5 | 35.4 | 0.00 | 0.00 | 0.00 | 76 | 1006.9 |
| 20260505225056 | 23 | 176 | 19.3 | 35.4 | 0.00 | 0.00 | 0.00 | 77 | 1007.1 |
| 20260505224556 | 23 | 176 | 22.5 | 32.2 | 0.00 | 0.00 | 0.00 | 77 | 1007.0 |
| 20260505224056 | 23 | 182 | 20.9 | 32.2 | 0.00 | 0.00 | 0.00 | 77 | 1007.0 |
| 20260505223555 | 23 | 174 | 20.9 | 32.2 | 0.00 | 0.00 | 0.00 | 78 | 1007.1 |
| 20260505223058 | 23 | 175 | 19.3 | 30.6 | 0.00 | 0.00 | 0.00 | 79 | 1007.2 |
| 20260505222555 | 22 | 193 | 22.5 | 35.4 | 0.00 | 0.00 | 0.00 | 79 | 1007.2 |
| 20260505222055 | 22 | 191 | 20.9 | 35.4 | 0.00 | 0.00 | 0.00 | 79 | 1007.4 |
| 20260505221556 | 22 | 186 | 20.9 | 37.0 | 0.00 | 0.00 | 0.00 | 80 | 1007.2 |
| 20260505221055 | 22 | 176 | 24.1 | 37.0 | 0.00 | 0.00 | 0.00 | 80 | 1007.2 |
| 20260505220557 | 22 | 176 | 24.1 | 37.0 | 0.00 | 0.00 | 0.00 | 81 | 1007.3 |
| 20260505220058 | 22 | 170 | 20.9 | 35.4 | 0.00 | 0.00 | 0.00 | 81 | 1007.4 |
| 20260505215600 | 22 | 205 | 24.1 | 35.4 | 0.00 | 0.00 | 0.00 | 81 | 1007.2 |
| 20260505215055 | 22 | 149 | 24.1 | 43.5 | 0.00 | 0.00 | 0.00 | 81 | 1007.2 |
| 20260505214609 | 22 | 186 | 27.4 | 43.5 | 0.00 | 0.00 | 0.00 | 81 | 1007.4 |
| 20260505214053 | 22 | 203 | 30.6 | 43.5 | 0.00 | 0.00 | 0.00 | 81 | 1007.4 |
| 20260505213554 | 22 | 175 | 27.4 | 37.0 | 0.00 | 0.00 | 0.00 | 81 | 1007.3 |
| 20260505213052 | 22 | 167 | 24.1 | 40.2 | 0.00 | 0.00 | 0.00 | 82 | 1007.3 |
| 20260505212554 | 22 | 170 | 27.4 | 40.2 | 0.00 | 0.00 | 0.00 | 81 | 1007.3 |
| 20260505212053 | 22 | 175 | 25.7 | 40.2 | 0.00 | 0.00 | 0.00 | 81 | 1007.4 |
| 20260505211556 | 22 | 183 | 27.4 | 45.1 | 0.00 | 0.00 | 0.00 | 81 | 1007.4 |
| 20260505211053 | 22 | 196 | 33.8 | 45.1 | 0.00 | 0.00 | 0.00 | 81 | 1007.6 |
| 20260505210553 | 22 | 167 | 33.8 | 48.3 | 0.00 | 0.00 | 0.00 | 80 | 1007.5 |
| 20260505210055 | 22 | 172 | 32.2 | 48.3 | 0.00 | 0.00 | 0.00 | 80 | 1007.5 |
| 20260505205553 | 22 | 160 | 37.0 | 48.3 | 0.00 | 0.00 | 0.00 | 79 | 1007.6 |
| 20260505205054 | 22 | 190 | 33.8 | 51.5 | 0.00 | 0.00 | 0.00 | 78 | 1007.7 |
| 20260505204553 | 22 | 190 | 32.2 | 51.5 | 0.00 | 0.00 | 0.00 | 78 | 1007.6 |
| 20260505204053 | 23 | 176 | 29.0 | 37.0 | 0.00 | 0.00 | 0.00 | 77 | 1007.8 |
| 20260505203553 | 23 | 176 | 25.7 | 35.4 | 0.00 | 0.00 | 0.00 | 77 | 1007.8 |
| 20260505203056 | 23 | 170 | 24.1 | 32.2 | 0.00 | 0.00 | 0.00 | 77 | 1008.0 |
| 20260505202555 | 22 | 167 | 19.3 | 38.6 | 0.00 | 0.00 | 0.00 | 78 | 1008.0 |
| 20260505202055 | 22 | 192 | 25.7 | 43.5 | 0.00 | 0.00 | 0.00 | 78 | 1008.1 |
| 20260505201557 | 22 | 164 | 30.6 | 43.5 | 0.00 | 0.00 | 0.00 | 77 | 1008.1 |
| 20260505201056 | 23 | 186 | 30.6 | 43.5 | 0.00 | 0.00 | 0.00 | 76 | 1008.0 |
| 20260505200553 | 23 | 160 | 27.4 | 37.0 | 0.00 | 0.00 | 0.00 | 75 | 1008.1 |
| 20260505200056 | 23 | 177 | 25.7 | 41.8 | 0.00 | 0.00 | 0.00 | 75 | 1008.2 |
| 20260505195552 | 23 | 193 | 30.6 | 41.8 | 0.00 | 0.00 | 0.00 | 75 | 1008.2 |
| 20260505195052 | 23 | 200 | 32.2 | 46.7 | 0.00 | 0.00 | 0.00 | 75 | 1008.1 |
| 20260505194555 | 23 | 205 | 32.2 | 46.7 | 0.00 | 0.00 | 0.00 | 74 | 1008.2 |
| 20260505194053 | 23 | 196 | 27.4 | 41.8 | 0.00 | 0.00 | 0.00 | 74 | 1008.2 |
| 20260505193556 | 23 | 200 | 32.2 | 46.7 | 0.00 | 0.00 | 0.00 | 74 | 1008.0 |
| 20260505193053 | 23 | 204 | 32.2 | 46.7 | 0.00 | 0.00 | 0.00 | 74 | 1008.3 |
| 20260505192553 | 23 | 191 | 30.6 | 43.5 | 0.00 | 0.00 | 0.00 | 74 | 1008.3 |
| 20260505192053 | 23 | 180 | 30.6 | 41.8 | 0.00 | 0.00 | 0.00 | 74 | 1008.3 |
| 20260505191605 | 23 | 179 | 30.6 | 41.8 | 0.00 | 0.00 | 0.00 | 74 | 1008.4 |
| 20260505191058 | 23 | 167 | 25.7 | 41.8 | 0.00 | 0.00 | 0.00 | 74 | 1008.4 |
| 20260505190552 | 23 | 190 | 30.6 | 40.2 | 0.00 | 0.00 | 0.00 | 74 | 1008.3 |
| 20260505185556 | 23 | 196 | 22.5 | 48.3 | 0.00 | 0.00 | 0.00 | 74 | 1008.4 |
| 20260505185056 | 23 | 203 | 29.0 | 48.3 | 0.00 | 0.00 | 0.00 | 75 | 1008.3 |
| 20260505184558 | 23 | 189 | 35.4 | 48.3 | 0.00 | 0.00 | 0.00 | 75 | 1008.5 |
| 20260505184053 | 22 | 188 | 25.7 | 46.7 | 0.00 | 0.00 | 0.00 | 75 | 1008.5 |
| 20260505183553 | 22 | 193 | 29.0 | 46.7 | 0.00 | 0.00 | 0.00 | 75 | 1008.5 |
| 20260505183114 | 22 | 196 | 33.8 | 46.7 | 0.00 | 0.00 | 0.00 | 75 | 1008.4 |
| 20260505182553 | 22 | 188 | 32.2 | 43.5 | 0.00 | 0.00 | 0.00 | 75 | 1008.4 |
| 20260505182053 | 22 | 162 | 29.0 | 41.8 | 0.00 | 0.00 | 0.00 | 75 | 1008.3 |
| 20260505181557 | 22 | 162 | 24.1 | 41.8 | 0.00 | 0.00 | 0.00 | 77 | 1008.4 |
| 20260505181056 | 22 | 178 | 19.3 | 35.4 | 0.00 | 0.00 | 0.00 | 77 | 1008.4 |
| 20260505180554 | 22 | 169 | 25.7 | 37.0 | 0.00 | 0.00 | 0.00 | 76 | 1008.4 |
| 20260505180054 | 21 | 188 | 24.1 | 37.0 | 0.00 | 0.00 | 0.00 | 78 | 1008.6 |
| 20260505175553 | 21 | 208 | 24.1 | 37.0 | 0.00 | 0.00 | 0.00 | 78 | 1008.6 |
| 20260505175056 | 21 | 182 | 20.9 | 45.1 | 0.00 | 0.00 | 0.00 | 78 | 1008.8 |
| 20260505174554 | 21 | 160 | 24.1 | 45.1 | 0.00 | 0.00 | 0.00 | 79 | 1008.7 |
| 20260505174053 | 21 | 173 | 32.2 | 45.1 | 0.00 | 0.00 | 0.00 | 79 | 1008.7 |
| 20260505173555 | 21 | 170 | 30.6 | 41.8 | 0.00 | 0.00 | 0.00 | 79 | 1008.8 |
| 20260505173101 | 21 | 183 | 30.6 | 43.5 | 0.00 | 0.00 | 0.00 | 79 | 1008.8 |
| 20260505172557 | 21 | 192 | 32.2 | 45.1 | 0.00 | 0.00 | 0.00 | 79 | 1008.9 |
| 20260505172055 | 21 | 198 | 30.6 | 45.1 | 0.00 | 0.00 | 0.00 | 78 | 1009.0 |
| 20260505171601 | 21 | 183 | 33.8 | 45.1 | 0.00 | 0.00 | 0.00 | 77 | 1009.1 |
| 20260505171056 | 21 | 165 | 30.6 | 41.8 | 0.00 | 0.00 | 0.00 | 77 | 1009.1 |
| 20260505170554 | 21 | 184 | 27.4 | 41.8 | 0.00 | 0.00 | 0.00 | 77 | 1009.1 |
| 20260505170058 | 21 | 186 | 30.6 | 45.1 | 0.00 | 0.00 | 0.00 | 77 | 1009.2 |
| 20260505165558 | 21 | 175 | 30.6 | 45.1 | 0.00 | 0.00 | 0.00 | 76 | 1009.1 |
| 20260505165053 | 21 | 182 | 32.2 | 53.1 | 0.00 | 0.00 | 0.00 | 76 | 1009.1 |
| 20260505164553 | 21 | 169 | 30.6 | 53.1 | 0.00 | 0.00 | 0.00 | 76 | 1009.2 |
| 20260505164053 | 21 | 165 | 37.0 | 53.1 | 0.00 | 0.00 | 0.00 | 76 | 1009.3 |
| 20260505163553 | 21 | 187 | 30.6 | 43.5 | 0.00 | 0.00 | 0.00 | 76 | 1009.3 |
| 20260505163056 | 21 | 167 | 29.0 | 45.1 | 0.00 | 0.00 | 0.00 | 75 | 1009.4 |
| 20260505162552 | 21 | 224 | 29.0 | 45.1 | 0.00 | 0.00 | 0.00 | 76 | 1009.4 |
| 20260505162054 | 21 | 199 | 32.2 | 46.7 | 0.00 | 0.00 | 0.00 | 76 | 1009.4 |
| 20260505161616 | 21 | 195 | 29.0 | 46.7 | 0.00 | 0.00 | 0.00 | 75 | 1009.3 |
| 20260505161054 | 21 | 180 | 35.4 | 46.7 | 0.00 | 0.00 | 0.00 | 75 | 1009.3 |
| 20260505160556 | 21 | 183 | 27.4 | 41.8 | 0.00 | 0.00 | 0.00 | 76 | 1009.2 |
| 20260505153103 | 20 | 212 | 25.7 | 40.2 | 0.00 | 0.00 | 0.00 | 77 | 1009.5 |
| 20260505152553 | 20 | 175 | 30.6 | 40.2 | 0.00 | 0.00 | 0.00 | 77 | 1009.4 |
| 20260505152052 | 20 | 165 | 27.4 | 35.4 | 0.00 | 0.00 | 0.00 | 77 | 1009.5 |
| 20260505151614 | 20 | 194 | 20.9 | 40.2 | 0.00 | 0.00 | 0.00 | 78 | 1009.6 |
| 20260505151055 | 20 | 181 | 27.4 | 40.2 | 0.00 | 0.00 | 0.00 | 78 | 1009.6 |
| 20260505150553 | 20 | 183 | 24.1 | 33.8 | 0.00 | 0.00 | 0.00 | 78 | 1009.6 |
| 20260505140553 | 18 | 210 | 20.9 | 30.6 | 0.00 | 0.00 | 0.00 | 77 | 1009.9 |
| 20260505124559 | 17 | 208 | 25.7 | 37.0 | 0.00 | 0.00 | 0.00 | 77 | 1009.3 |
| 20260505124053 | 17 | 186 | 24.1 | 35.4 | 0.00 | 0.00 | 0.00 | 77 | 1009.4 |
| 20260505123556 | 17 | 195 | 20.9 | 32.2 | 0.00 | 0.00 | 0.00 | 77 | 1009.4 |
| 20260505123057 | 17 | 195 | 19.3 | 33.8 | 0.00 | 0.00 | 0.00 | 78 | 1009.2 |
| 20260505122554 | 17 | 174 | 24.1 | 33.8 | 0.00 | 0.00 | 0.00 | 78 | 1009.1 |
| 20260505122055 | 17 | 201 | 24.1 | 29.0 | 0.00 | 0.00 | 0.00 | 79 | 1009.1 |
| 20260505121556 | 17 | 195 | 20.9 | 32.2 | 0.00 | 0.00 | 0.00 | 79 | 1009.1 |
| 20260505121057 | 16 | 195 | 22.5 | 32.2 | 0.00 | 0.00 | 0.00 | 79 | 1009.0 |
| 20260505120557 | 16 | 183 | 24.1 | 32.2 | 0.00 | 0.00 | 0.00 | 79 | 1008.8 |
| 20260505120110 | 16 | 183 | 22.5 | 32.2 | 0.00 | 0.00 | 0.00 | 79 | 1008.7 |
| 20260505115556 | 16 | 187 | 20.9 | 32.2 | 0.00 | 0.00 | 0.00 | 80 | 1008.7 |
| 20260505115057 | 16 | 189 | 19.3 | 33.8 | 0.00 | 0.00 | 0.00 | 79 | 1008.7 |
| 20260505114600 | 16 | 179 | 24.1 | 33.8 | 0.00 | 0.00 | 0.00 | 79 | 1008.7 |
| 20260505114057 | 16 | 167 | 22.5 | 33.8 | 0.00 | 0.00 | 0.00 | 79 | 1008.6 |
| 20260505113555 | 16 | 182 | 19.3 | 29.0 | 0.00 | 0.00 | 0.00 | 80 | 1008.6 |
| 20260505113059 | 16 | 166 | 20.9 | 29.0 | 0.00 | 0.00 | 0.00 | 80 | 1008.6 |
| 20260505112555 | 16 | 172 | 17.7 | 27.4 | 0.00 | 0.00 | 0.00 | 80 | 1008.7 |
| 20260505112055 | 16 | 177 | 19.3 | 32.2 | 0.00 | 0.00 | 0.00 | 80 | 1008.6 |
| 20260505111555 | 16 | 169 | 19.3 | 32.2 | 0.00 | 0.00 | 0.00 | 80 | 1008.6 |
| 20260505111055 | 16 | 183 | 19.3 | 32.2 | 0.00 | 0.00 | 0.00 | 80 | 1008.6 |
| 20260505110555 | 16 | 184 | 14.5 | 29.0 | 0.00 | 0.00 | 0.00 | 80 | 1008.6 |
| 20260505102056 | 16 | 165 | 17.7 | 29.0 | 0.00 | 0.00 | 0.00 | 78 | 1008.3 |
| 20260505101554 | 16 | 177 | 17.7 | 29.0 | 0.00 | 0.00 | 0.00 | 77 | 1008.4 |
| 20260505101055 | 16 | 169 | 16.1 | 27.4 | 0.00 | 0.00 | 0.00 | 77 | 1008.5 |
| 20260505100555 | 16 | 159 | 16.1 | 27.4 | 0.00 | 0.00 | 0.00 | 77 | 1008.5 |
| 20260505100055 | 16 | 155 | 14.5 | 24.1 | 0.00 | 0.00 | 0.00 | 77 | 1008.4 |
| 20260505095555 | 16 | 171 | 14.5 | 24.1 | 0.00 | 0.00 | 0.00 | 77 | 1008.4 |
| 20260505095054 | 16 | 179 | 12.9 | 24.1 | 0.00 | 0.00 | 0.00 | 77 | 1008.4 |
| 20260505094553 | 16 | 171 | 16.1 | 24.1 | 0.00 | 0.00 | 0.00 | 77 | 1008.5 |
| 20260505094055 | 16 | 162 | 12.9 | 22.5 | 0.00 | 0.00 | 0.00 | 77 | 1008.5 |
| 20260505093555 | 16 | 155 | 14.5 | 22.5 | 0.00 | 0.00 | 0.00 | 76 | 1008.6 |
| 20260505093056 | 16 | 179 | 16.1 | 22.5 | 0.00 | 0.00 | 0.00 | 76 | 1008.8 |
| 20260505092556 | 16 | 169 | 14.5 | 22.5 | 0.00 | 0.00 | 0.00 | 76 | 1008.8 |
| 20260505092054 | 17 | 203 | 12.9 | 22.5 | 0.00 | 0.00 | 0.00 | 76 | 1008.7 |
| 20260505091552 | 17 | 176 | 12.9 | 24.1 | 0.00 | 0.00 | 0.00 | 75 | 1008.8 |
| 20260505091059 | 17 | 187 | 14.5 | 24.1 | 0.00 | 0.00 | 0.00 | 75 | 1008.8 |
| 20260505090555 | 17 | 162 | 16.1 | 29.0 | 0.00 | 0.00 | 0.00 | 74 | 1008.8 |
| 20260505090053 | 17 | 181 | 17.7 | 29.0 | 0.00 | 0.00 | 0.00 | 74 | 1008.8 |
| 20260505085555 | 17 | 155 | 17.7 | 27.4 | 0.00 | 0.00 | 0.00 | 74 | 1008.8 |
| 20260505085055 | 17 | 181 | 14.5 | 25.7 | 0.00 | 0.00 | 0.00 | 74 | 1008.7 |
| 20260505084554 | 17 | 174 | 14.5 | 29.0 | 0.00 | 0.00 | 0.00 | 73 | 1008.8 |
| 20260505084055 | 17 | 171 | 17.7 | 29.0 | 0.00 | 0.00 | 0.00 | 73 | 1008.9 |
| 20260505083554 | 17 | 199 | 17.7 | 27.4 | 0.00 | 0.00 | 0.00 | 73 | 1009.0 |
| 20260505083054 | 17 | 185 | 17.7 | 25.7 | 0.00 | 0.00 | 0.00 | 73 | 1009.0 |
| 20260505082554 | 17 | 170 | 12.9 | 20.9 | 0.00 | 0.00 | 0.00 | 73 | 1008.9 |
| 20260505082055 | 17 | 172 | 12.9 | 20.9 | 0.00 | 0.00 | 0.00 | 73 | 1008.9 |
| 20260505081604 | 17 | 175 | 12.9 | 19.3 | 0.00 | 0.00 | 0.00 | 73 | 1008.9 |
| 20260505081055 | 17 | 160 | 11.3 | 17.7 | 0.00 | 0.00 | 0.00 | 73 | 1008.9 |
| 20260505080555 | 17 | 189 | 8.0 | 19.3 | 0.00 | 0.00 | 0.00 | 72 | 1008.9 |
| 20260505080054 | 17 | 201 | 8.0 | 19.3 | 0.00 | 0.00 | 0.00 | 72 | 1008.7 |
| 20260505075551 | 17 | 179 | 11.3 | 20.9 | 0.00 | 0.00 | 0.00 | 72 | 1009.0 |
| 20260505075051 | 17 | 172 | 11.3 | 20.9 | 0.00 | 0.00 | 0.00 | 72 | 1009.1 |
| 20260505074558 | 17 | 201 | 11.3 | 17.7 | 0.00 | 0.00 | 0.00 | 72 | 1009.1 |
| 20260505074055 | 17 | 178 | 6.4 | 14.5 | 0.00 | 0.00 | 0.00 | 72 | 1009.4 |
| 20260505073555 | 17 | 179 | 4.8 | 16.1 | 0.00 | 0.00 | 0.00 | 71 | 1009.5 |
| 20260505073110 | 17 | 163 | 0.0 | 16.1 | 0.00 | 0.00 | 0.00 | 71 | 1009.5 |
| 20260505072554 | 17 | 172 | 1.6 | 16.1 | 0.00 | 0.00 | 0.00 | 71 | 1009.5 |
| 20260505072056 | 17 | 156 | 6.4 | 17.7 | 0.00 | 0.00 | 0.00 | 70 | 1009.6 |
| 20260505071558 | 17 | 169 | 8.0 | 17.7 | 0.00 | 0.00 | 0.00 | 70 | 1009.6 |
| 20260505071055 | 17 | 178 | 9.7 | 16.1 | 0.00 | 0.00 | 0.00 | 70 | 1009.6 |
| 20260505070557 | 17 | 141 | 9.7 | 17.7 | 0.00 | 0.00 | 0.00 | 70 | 1009.6 |
| 20260505070055 | 17 | 199 | 6.4 | 17.7 | 0.00 | 0.00 | 0.00 | 69 | 1009.7 |
| 20260505065554 | 17 | 175 | 9.7 | 17.7 | 0.00 | 0.00 | 0.00 | 69 | 1009.8 |
| 20260505065054 | 17 | 179 | 11.3 | 16.1 | 0.00 | 0.00 | 0.00 | 69 | 1009.8 |
| 20260505064552 | 17 | 177 | 8.0 | 14.5 | 0.00 | 0.00 | 0.00 | 69 | 1009.9 |
| 20260505064054 | 17 | 0 | 9.7 | 14.5 | 0.00 | 0.00 | 0.00 | 69 | 1010.0 |
| 20260505063554 | 17 | 153 | 6.4 | 14.5 | 0.00 | 0.00 | 0.00 | 69 | 1010.0 |
| 20260505063054 | 17 | 181 | 0.0 | 11.3 | 0.00 | 0.00 | 0.00 | 69 | 1010.0 |
| 20260505062552 | 17 | 174 | 1.6 | 16.1 | 0.00 | 0.00 | 0.00 | 69 | 1009.9 |
| 20260505062053 | 17 | 0 | 4.8 | 16.1 | 0.00 | 0.00 | 0.00 | 68 | 1009.9 |
| 20260505061556 | 17 | 160 | 6.4 | 14.5 | 0.00 | 0.00 | 0.00 | 68 | 1010.1 |
| 20260505061053 | 17 | 176 | 3.2 | 14.5 | 0.00 | 0.00 | 0.00 | 68 | 1009.9 |
| 20260505060554 | 18 | 0 | 1.6 | 14.5 | 0.00 | 0.00 | 0.00 | 67 | 1010.1 |
| 20260505060056 | 18 | 171 | 4.8 | 14.5 | 0.00 | 0.00 | 0.00 | 67 | 1010.1 |